OK2ZI Weather Reports


time (UTC)temp
F
wind
direction
speed
knots
gust
knots
rain 1hr
in
rain 24hr
in
rain mn
in
humidity
%
barometer
mb
20260905195205 59 294 7.0 7.0 0.00 0.00 0.00 64 1022.0
20260905195011 59 294 7.0 7.0 0.00 0.00 0.00 64 1021.0
20260905194606 59 294 7.8 7.8 0.00 0.00 0.00 64 1021.0
20260905194405 59 294 7.8 7.8 0.00 0.00 0.00 64 1021.0
20260905194206 60 294 7.0 7.0 0.00 0.00 0.00 63 1021.0
20260905194011 60 298 7.8 7.8 0.00 0.00 0.00 62 1021.0
20260905193807 60 300 7.0 7.0 0.00 0.00 0.00 62 1021.0
20260905193606 61 300 7.8 7.8 0.00 0.00 0.00 62 1021.0
20260905193404 61 300 7.8 7.8 0.00 0.00 0.00 62 1021.0
20260905193206 61 300 7.8 7.8 0.00 0.00 0.00 61 1021.0
20260905193014 61 294 7.8 7.8 0.00 0.00 0.00 61 1021.0
20260905192807 61 290 13.0 13.0 0.00 0.00 0.00 61 1021.0
20260905192606 61 300 7.8 7.8 0.00 0.00 0.00 62 1021.0
20260905192405 62 297 7.8 7.8 0.00 0.00 0.00 62 1021.0
20260905192207 62 294 13.9 14.8 0.00 0.00 0.00 62 1021.0
20260905192008 62 294 13.9 14.8 0.00 0.00 0.00 63 1021.0
20260905191806 62 282 7.8 7.8 0.00 0.00 0.00 63 1021.0
20260905191607 62 298 7.8 7.8 0.00 0.00 0.00 64 1021.0
20260905191406 62 300 7.8 7.8 0.00 0.00 0.00 64 1021.0
20260905191207 63 300 13.9 15.6 0.00 0.00 0.00 63 1021.0
20260905191009 63 288 15.6 16.5 0.00 0.00 0.00 62 1021.0
20260905190904 63 287 19.1 20.9 0.00 0.00 0.00 63 1021.0
20260905190807 63 285 15.6 16.5 0.00 0.00 0.00 63 1021.0
20260905190606 63 300 14.8 15.6 0.00 0.00 0.00 62 1021.0
20260905190405 63 288 18.2 19.1 0.00 0.00 0.00 62 1021.0
20260905190206 63 291 19.1 20.9 0.00 0.00 0.00 62 1021.0
20260905190018 63 288 13.0 14.8 0.00 0.00 0.00 62 1021.0
20260905185805 64 279 15.6 16.5 0.00 0.00 0.00 61 1021.0
20260905185606 64 294 7.8 7.8 0.00 0.00 0.00 61 1021.0
20260905185405 64 253 13.0 13.0 0.00 0.00 0.00 60 1020.0
20260905185207 64 258 15.6 16.5 0.00 0.00 0.00 60 1020.0
20260905185010 64 264 13.9 14.8 0.00 0.00 0.00 60 1020.0
20260905184806 64 270 7.0 7.0 0.00 0.00 0.00 60 1020.0
20260905184606 64 210 12.2 12.2 0.00 0.00 0.00 60 1020.0
20260905184204 64 264 7.0 7.0 0.00 0.00 0.00 60 1020.0
20260905183606 64 252 7.8 7.8 0.00 0.00 0.00 60 1020.0
20260905183405 64 252 7.0 7.0 0.00 0.00 0.00 60 1020.0
20260905183207 64 270 5.2 5.2 0.00 0.00 0.00 59 1020.0
20260905183014 64 236 7.0 7.0 0.00 0.00 0.00 59 1020.0
20260905182406 64 264 12.2 12.2 0.00 0.00 0.00 58 1020.0
20260905182207 64 252 7.0 7.0 0.00 0.00 0.00 59 1020.0
20260905182011 64 269 7.8 7.8 0.00 0.00 0.00 59 1020.0
20260905181807 63 204 13.9 14.8 0.00 0.00 0.00 58 1020.0
20260905181609 63 264 6.1 6.1 0.00 0.00 0.00 59 1020.0
20260905181205 63 267 7.8 7.8 0.00 0.00 0.00 59 1020.0
20260905180805 63 282 7.0 7.0 0.00 0.00 0.00 60 1020.0
20260905180605 63 282 7.0 7.0 0.00 0.00 0.00 59 1020.0
20260905180404 63 282 4.3 4.3 0.00 0.00 0.00 59 1020.0
20260905180205 63 288 5.2 5.2 0.00 0.00 0.00 59 1020.0
20260905175806 64 288 7.8 7.8 0.00 0.00 0.00 58 1020.0
20260905175605 64 299 7.0 7.0 0.00 0.00 0.00 58 1020.0
20260905175405 64 276 7.8 7.8 0.00 0.00 0.00 58 1020.0
20260905175207 64 282 6.1 6.1 0.00 0.00 0.00 58 1020.0
20260905174806 64 286 6.1 6.1 0.00 0.00 0.00 57 1020.0
20260905174606 64 284 7.0 7.0 0.00 0.00 0.00 57 1020.0
20260905174205 65 284 12.2 12.2 0.00 0.00 0.00 55 1020.0
20260905174012 65 284 4.3 4.3 0.00 0.00 0.00 55 1020.0
20260905173807 65 292 7.0 7.0 0.00 0.00 0.00 55 1020.0
20260905173606 66 282 7.8 7.8 0.00 0.00 0.00 54 1020.0
20260905173205 66 282 12.2 12.2 0.00 0.00 0.00 53 1020.0
20260905173011 67 298 12.2 12.2 0.00 0.00 0.00 52 1020.0
20260905172806 67 288 12.2 12.2 0.00 0.00 0.00 52 1020.0
20260905172605 67 274 7.8 7.8 0.00 0.00 0.00 51 1020.0
20260905172407 67 246 17.4 19.1 0.00 0.00 0.00 50 1020.0
20260905172207 67 282 20.9 22.6 0.00 0.00 0.00 50 1020.0
20260905172009 67 286 17.4 19.1 0.00 0.00 0.00 50 1020.0
20260905171806 67 246 26.9 26.9 0.00 0.00 0.00 50 1020.0
20260905171607 67 288 12.2 12.2 0.00 0.00 0.00 51 1020.0
20260905171406 67 276 13.0 13.0 0.00 0.00 0.00 50 1020.0
20260905171204 67 288 12.2 12.2 0.00 0.00 0.00 50 1020.0
20260905171010 68 237 13.9 14.8 0.00 0.00 0.00 50 1019.0
20260905170606 68 275 13.0 13.0 0.00 0.00 0.00 49 1019.0
20260905170407 68 324 27.8 29.5 0.00 0.00 0.00 49 1019.0
20260905170207 68 287 22.6 26.1 0.00 0.00 0.00 49 1019.0
20260905170019 69 248 17.4 19.1 0.00 0.00 0.00 48 1019.0
20260905165807 69 289 18.2 19.1 0.00 0.00 0.00 48 1019.0
20260905165607 69 289 20.0 22.6 0.00 0.00 0.00 47 1019.0
20260905165405 70 284 15.6 17.4 0.00 0.00 0.00 47 1019.0
20260905165206 70 281 33.0 37.4 0.00 0.00 0.00 47 1019.0
20260905165008 70 246 25.2 26.9 0.00 0.00 0.00 46 1019.0
20260905164607 70 264 20.9 24.3 0.00 0.00 0.00 46 1019.0
20260905164406 70 240 15.6 16.5 0.00 0.00 0.00 46 1019.0
20260905164207 71 256 26.1 26.9 0.00 0.00 0.00 45 1019.0
20260905164008 71 298 20.0 22.6 0.00 0.00 0.00 45 1019.0
20260905163806 71 252 14.8 15.6 0.00 0.00 0.00 45 1019.0
20260905163405 71 204 20.9 22.6 0.00 0.00 0.00 44 1019.0
20260905163205 71 247 12.2 12.2 0.00 0.00 0.00 44 1019.0
20260905163014 71 311 7.8 7.8 0.00 0.00 0.00 44 1019.0
20260905162805 71 234 15.6 16.5 0.00 0.00 0.00 44 1019.0
20260905162607 71 264 20.9 24.3 0.00 0.00 0.00 44 1019.0
20260905162406 71 229 25.2 26.1 0.00 0.00 0.00 44 1019.0
20260905162207 71 259 12.2 12.2 0.00 0.00 0.00 44 1019.0
20260905162009 71 264 26.9 29.5 0.00 0.00 0.00 44 1019.0
20260905161806 71 287 25.2 26.1 0.00 0.00 0.00 44 1019.0
20260905161606 71 264 14.8 15.6 0.00 0.00 0.00 44 1019.0
20260905161406 71 245 17.4 18.2 0.00 0.00 0.00 44 1019.0
20260905161207 71 229 21.7 26.1 0.00 0.00 0.00 43 1019.0
20260905161009 72 234 26.9 26.9 0.00 0.00 0.00 42 1019.0
20260905160807 72 259 24.3 26.9 0.00 0.00 0.00 42 1019.0
20260905160607 72 234 22.6 22.6 0.00 0.00 0.00 42 1019.0
20260905160405 72 270 12.2 12.2 0.00 0.00 0.00 43 1019.0
20260905160016 71 302 24.3 24.3 0.00 0.00 0.00 42 1019.0
20260905155806 72 282 22.6 26.1 0.00 0.00 0.00 42 1019.0
20260905155605 71 228 28.7 33.0 0.00 0.00 0.00 42 1019.0
20260905155405 71 270 36.5 40.8 0.00 0.00 0.00 42 1019.0
20260905155205 71 294 36.5 40.8 0.00 0.00 0.00 42 1019.0
20260905154605 71 282 39.1 42.6 0.00 0.00 0.00 42 1019.0
20260905154406 71 264 18.2 19.1 0.00 0.00 0.00 42 1019.0
20260905154012 72 253 26.9 33.0 0.00 0.00 0.00 42 1019.0
20260905153805 71 284 18.2 19.1 0.00 0.00 0.00 42 1019.0
20260905153605 71 241 26.9 29.5 0.00 0.00 0.00 41 1019.0
20260905153404 70 240 18.2 19.1 0.00 0.00 0.00 42 1019.0
20260905153205 70 286 34.8 40.8 0.00 0.00 0.00 43 1019.0
20260905153011 70 242 26.9 27.8 0.00 0.00 0.00 43 1019.0
20260905152807 70 198 19.1 21.7 0.00 0.00 0.00 44 1019.0
20260905152606 70 294 26.1 27.8 0.00 0.00 0.00 44 1019.0
20260905152407 70 282 22.6 26.1 0.00 0.00 0.00 43 1019.0
20260905152204 70 289 26.1 26.9 0.00 0.00 0.00 43 1019.0
20260905152011 70 288 33.0 35.6 0.00 0.00 0.00 43 1019.0
20260905151807 70 295 26.9 27.8 0.00 0.00 0.00 41 1019.0
20260905151405 69 234 19.1 20.9 0.00 0.00 0.00 44 1019.0
20260905151205 70 252 26.1 26.9 0.00 0.00 0.00 43 1019.0
20260905151012 70 198 26.9 27.8 0.00 0.00 0.00 42 1019.0
20260905150606 69 276 20.9 22.6 0.00 0.00 0.00 45 1019.0
20260905150208 69 263 28.7 33.0 0.00 0.00 0.00 46 1019.0
20260905150015 70 253 20.0 21.7 0.00 0.00 0.00 45 1019.0
20260905145807 70 282 24.3 24.3 0.00 0.00 0.00 45 1019.0
20260905145608 69 270 26.9 27.8 0.00 0.00 0.00 45 1019.0
20260905145405 70 243 24.3 24.3 0.00 0.00 0.00 45 1019.0
20260905145205 70 235 26.1 26.9 0.00 0.00 0.00 43 1019.0
20260905145012 69 303 19.1 21.7 0.00 0.00 0.00 45 1019.0
20260905144804 69 220 26.9 26.9 0.00 0.00 0.00 44 1019.0
20260905144606 69 271 21.7 26.1 0.00 0.00 0.00 44 1019.0
20260905144406 69 222 20.0 21.7 0.00 0.00 0.00 44 1019.0
20260905144205 69 284 33.9 38.2 0.00 0.00 0.00 45 1019.0
20260905144009 69 288 20.9 24.3 0.00 0.00 0.00 44 1019.0
20260905143606 69 240 34.8 38.2 0.00 0.00 0.00 45 1019.0
20260905143405 69 234 17.4 19.1 0.00 0.00 0.00 45 1019.0
20260905143206 69 224 36.5 40.8 0.00 0.00 0.00 44 1019.0
20260905142807 70 271 26.1 26.9 0.00 0.00 0.00 44 1019.0
20260905142605 70 222 19.1 20.9 0.00 0.00 0.00 43 1019.0
20260905142405 70 228 35.6 38.2 0.00 0.00 0.00 42 1019.0
20260905142207 70 306 37.4 40.8 0.00 0.00 0.00 44 1019.0
20260905142008 70 186 18.2 19.1 0.00 0.00 0.00 44 1019.0
20260905141807 70 299 26.9 26.9 0.00 0.00 0.00 44 1019.0
20260905141607 70 271 27.8 29.5 0.00 0.00 0.00 44 1019.0
20260905141406 71 276 13.0 13.0 0.00 0.00 0.00 43 1019.0
20260905141207 70 235 22.6 26.1 0.00 0.00 0.00 44 1019.0
20260905141010 71 259 40.8 47.8 0.00 0.00 0.00 44 1019.0
20260905140808 72 276 42.6 48.7 0.00 0.00 0.00 42 1019.0
20260905140406 73 278 37.4 40.8 0.00 0.00 0.00 40 1019.0
20260905140016 73 288 46.1 51.3 0.00 0.00 0.00 39 1019.0
20260905135805 73 271 35.6 38.2 0.00 0.00 0.00 39 1019.0
20260905135605 72 266 51.3 54.7 0.00 0.00 0.00 40 1019.0
20260905135206 71 306 40.0 47.8 0.00 0.00 0.00 42 1019.0
20260905135011 71 287 33.9 40.0 0.00 0.00 0.00 44 1019.0
20260905134805 72 300 37.4 46.1 0.00 0.00 0.00 42 1019.0
20260905134607 72 282 37.4 40.8 0.00 0.00 0.00 43 1019.0
20260905134405 73 282 37.4 40.0 0.00 0.00 0.00 42 1019.0
20260905134205 73 264 33.0 38.2 0.00 0.00 0.00 41 1019.0
20260905134009 72 291 24.3 26.9 0.00 0.00 0.00 42 1019.0
20260905133807 73 241 47.8 56.5 0.00 0.00 0.00 43 1019.0
20260905133605 73 232 14.8 15.6 0.00 0.00 0.00 41 1019.0
20260905133423 73 300 40.8 46.9 0.00 0.00 0.00 42 1019.0
20260905133205 73 270 37.4 40.8 0.00 0.00 0.00 40 1019.0
20260905133012 73 288 40.8 46.9 0.00 0.00 0.00 40 1019.0
20260905132805 73 239 20.0 21.7 0.00 0.00 0.00 41 1019.0
20260905132605 73 216 24.3 26.9 0.00 0.00 0.00 41 1019.0
20260905132504 73 212 20.0 22.6 0.00 0.00 0.00 41 1019.0
20260905131807 73 203 20.9 24.3 0.00 0.00 0.00 41 1019.0
20260905131008 72 280 36.5 46.9 0.00 0.00 0.00 41 1019.0
20260905130806 72 306 42.6 49.5 0.00 0.00 0.00 41 1019.0
20260905130607 72 264 36.5 40.0 0.00 0.00 0.00 43 1019.0
20260905130204 71 281 28.7 33.0 0.00 0.00 0.00 46 1019.0
20260905130019 71 282 21.7 24.3 0.00 0.00 0.00 46 1019.0
20260905125607 73 43 24.3 26.9 0.00 0.00 0.00 43 1019.0
20260905125406 73 304 24.3 26.9 0.00 0.00 0.00 42 1019.0
20260905125205 72 254 34.8 38.2 0.00 0.00 0.00 42 1019.0
20260905125007 72 282 40.8 47.8 0.00 0.00 0.00 43 1019.0
20260905124405 71 264 53.9 60.0 0.00 0.00 0.00 44 1019.0
20260905124205 73 270 24.3 26.9 0.00 0.00 0.00 41 1019.0
20260905124010 73 196 26.1 26.9 0.00 0.00 0.00 42 1019.0
20260905123805 72 221 20.9 24.3 0.00 0.00 0.00 42 1019.0
20260905123606 72 186 24.3 24.3 0.00 0.00 0.00 43 1019.0
20260905123405 72 246 20.9 22.6 0.00 0.00 0.00 42 1019.0
20260905123012 71 303 17.4 18.2 0.00 0.00 0.00 44 1019.0
20260905122805 71 288 36.5 40.0 0.00 0.00 0.00 44 1019.0
20260905122607 71 287 33.0 38.2 0.00 0.00 0.00 44 1019.0
20260905122206 71 228 21.7 24.3 0.00 0.00 0.00 45 1019.0
20260905122010 71 253 37.4 43.4 0.00 0.00 0.00 44 1019.0
20260905121805 71 289 29.5 33.9 0.00 0.00 0.00 46 1019.0
20260905121606 71 248 26.9 27.8 0.00 0.00 0.00 45 1019.0
20260905121405 71 258 27.8 29.5 0.00 0.00 0.00 45 1019.0
20260905121205 71 281 40.8 46.9 0.00 0.00 0.00 44 1019.0
20260905121008 71 293 58.2 62.6 0.00 0.00 0.00 44 1019.0
20260905120605 70 270 37.4 40.0 0.00 0.00 0.00 44 1019.0
20260905120405 69 254 33.9 35.6 0.00 0.00 0.00 48 1019.0
20260905120206 71 289 51.3 53.0 0.00 0.00 0.00 46 1019.0
20260905120018 73 290 16.5 17.4 0.00 0.00 0.00 44 1019.0
20260905115807 73 236 24.3 26.9 0.00 0.00 0.00 44 1019.0
20260905115606 72 253 21.7 24.3 0.00 0.00 0.00 47 1019.0
20260905115406 71 245 38.2 46.1 0.00 0.00 0.00 46 1019.0
20260905115204 70 222 20.0 22.6 0.00 0.00 0.00 45 1019.0
20260905114807 69 270 34.8 37.4 0.00 0.00 0.00 48 1019.0
20260905114605 69 295 20.9 22.6 0.00 0.00 0.00 48 1019.0
20260905114405 70 289 21.7 26.1 0.00 0.00 0.00 47 1019.0
20260905114206 71 228 34.8 37.4 0.00 0.00 0.00 47 1019.0
20260905114012 71 299 20.0 22.6 0.00 0.00 0.00 47 1019.0
20260905113607 70 324 37.4 40.0 0.00 0.00 0.00 47 1019.0
20260905113405 70 336 26.9 27.8 0.00 0.00 0.00 47 1019.0
20260905113205 70 275 26.9 26.9 0.00 0.00 0.00 48 1019.0
20260905113012 69 247 33.0 35.6 0.00 0.00 0.00 46 1019.0
20260905112804 69 286 27.8 29.5 0.00 0.00 0.00 48 1019.0
20260905112607 69 168 21.7 24.3 0.00 0.00 0.00 48 1019.0
20260905112407 69 259 33.0 35.6 0.00 0.00 0.00 49 1020.0
20260905112206 69 252 33.9 37.4 0.00 0.00 0.00 49 1020.0
20260905112010 69 302 24.3 26.9 0.00 0.00 0.00 52 1019.0
20260905111806 70 289 26.9 27.8 0.00 0.00 0.00 50 1019.0
20260905111606 70 312 20.9 22.6 0.00 0.00 0.00 48 1019.0
20260905111407 69 266 17.4 19.1 0.00 0.00 0.00 51 1020.0
20260905111205 69 242 27.8 29.5 0.00 0.00 0.00 51 1020.0
20260905111009 69 282 19.1 20.0 0.00 0.00 0.00 49 1019.0
20260905110806 69 249 19.1 20.0 0.00 0.00 0.00 53 1019.0
20260905110605 69 294 24.3 26.9 0.00 0.00 0.00 51 1019.0
20260905110405 70 283 13.0 13.0 0.00 0.00 0.00 50 1019.0
20260905110206 70 229 16.5 18.2 0.00 0.00 0.00 52 1019.0
20260905110021 70 254 26.1 26.9 0.00 0.00 0.00 52 1020.0
20260905105606 70 241 22.6 26.1 0.00 0.00 0.00 54 1020.0
20260905105205 69 218 18.2 19.1 0.00 0.00 0.00 51 1020.0
20260905104805 69 276 12.2 12.2 0.00 0.00 0.00 54 1019.0
20260905104607 68 327 20.9 22.6 0.00 0.00 0.00 52 1019.0
20260905104405 68 222 19.1 20.9 0.00 0.00 0.00 55 1019.0
20260905104207 68 295 17.4 19.1 0.00 0.00 0.00 56 1019.0
20260905104009 68 277 18.2 19.1 0.00 0.00 0.00 54 1019.0
20260905103805 69 282 28.7 33.0 0.00 0.00 0.00 53 1019.0
20260905103605 69 268 25.2 26.9 0.00 0.00 0.00 53 1019.0
20260905103406 70 246 20.9 24.3 0.00 0.00 0.00 54 1019.0
20260905103206 70 229 20.0 21.7 0.00 0.00 0.00 53 1019.0
20260905102807 69 256 13.0 14.8 0.00 0.00 0.00 54 1020.0
20260905102407 68 230 18.2 19.1 0.00 0.00 0.00 57 1019.0
20260905102012 67 222 19.1 20.9 0.00 0.00 0.00 60 1019.0
20260905101806 69 246 19.1 21.7 0.00 0.00 0.00 56 1019.0
20260905101606 69 218 24.3 26.9 0.00 0.00 0.00 60 1019.0
20260905101407 69 228 33.0 35.6 0.00 0.00 0.00 58 1020.0
20260905101207 68 210 22.6 22.6 0.00 0.00 0.00 58 1020.0
20260905101008 68 252 20.9 22.6 0.00 0.00 0.00 60 1020.0
20260905100805 69 286 20.0 21.7 0.00 0.00 0.00 57 1020.0
20260905100606 68 257 15.6 16.5 0.00 0.00 0.00 57 1020.0
20260905100407 68 245 12.2 12.2 0.00 0.00 0.00 60 1020.0
20260905100205 69 278 26.9 27.8 0.00 0.00 0.00 60 1020.0
20260905100029 69 190 26.9 27.8 0.00 0.00 0.00 58 1020.0
20260905095806 69 162 26.9 29.5 0.00 0.00 0.00 58 1020.0
20260905095606 69 217 20.0 21.7 0.00 0.00 0.00 58 1020.0
20260905095406 68 216 22.6 26.9 0.00 0.00 0.00 59 1020.0
20260905095010 68 264 20.0 21.7 0.00 0.00 0.00 61 1020.0
20260905094606 69 214 19.1 20.9 0.00 0.00 0.00 59 1020.0
20260905094406 69 184 29.5 33.9 0.00 0.00 0.00 59 1020.0
20260905094216 69 210 20.0 22.6 0.00 0.00 0.00 59 1020.0
20260905094012 69 269 19.1 20.9 0.00 0.00 0.00 59 1020.0
20260905093805 69 252 12.2 12.2 0.00 0.00 0.00 61 1020.0
20260905093606 68 262 12.2 12.2 0.00 0.00 0.00 60 1020.0
20260905093405 68 190 16.5 17.4 0.00 0.00 0.00 62 1020.0
20260905093206 68 212 24.3 24.3 0.00 0.00 0.00 62 1020.0
20260905093016 68 234 28.7 33.0 0.00 0.00 0.00 63 1020.0
20260905092806 67 246 13.9 14.8 0.00 0.00 0.00 61 1020.0
20260905092606 67 217 19.1 20.0 0.00 0.00 0.00 62 1020.0
20260905092205 66 284 15.6 16.5 0.00 0.00 0.00 66 1020.0
20260905092011 66 270 26.1 26.9 0.00 0.00 0.00 64 1020.0
20260905091606 66 264 19.1 20.0 0.00 0.00 0.00 67 1020.0
20260905091011 67 234 18.2 19.1 0.00 0.00 0.00 68 1020.0
20260905090805 66 258 26.1 27.8 0.00 0.00 0.00 69 1020.0
20260905090604 65 253 26.1 27.8 0.00 0.00 0.00 69 1020.0
20260905090407 65 204 29.5 38.2 0.00 0.00 0.00 70 1020.0
20260905090206 64 233 22.6 26.1 0.00 0.00 0.00 72 1020.0
20260905090015 64 218 20.9 22.6 0.00 0.00 0.00 73 1020.0
20260905085807 64 219 26.1 26.9 0.00 0.00 0.00 76 1020.0
20260905085607 65 270 20.0 22.6 0.00 0.00 0.00 71 1020.0
20260905085407 64 223 29.5 37.4 0.00 0.00 0.00 74 1020.0
20260905085205 64 186 17.4 19.1 0.00 0.00 0.00 76 1020.0
20260905085011 64 174 19.1 20.0 0.00 0.00 0.00 76 1020.0
20260905084805 64 198 25.2 26.1 0.00 0.00 0.00 75 1020.0
20260905084605 64 192 22.6 22.6 0.00 0.00 0.00 76 1020.0
20260905084206 63 198 15.6 15.6 0.00 0.00 0.00 78 1020.0
20260905084008 63 192 15.6 16.5 0.00 0.00 0.00 78 1020.0
20260905083806 63 204 13.0 14.8 0.00 0.00 0.00 80 1020.0
20260905083406 62 216 17.4 19.1 0.00 0.00 0.00 79 1020.0
20260905083206 61 258 14.8 15.6 0.00 0.00 0.00 80 1020.0
20260905083012 60 202 12.2 12.2 0.00 0.00 0.00 81 1020.0
20260905082806 60 222 14.8 15.6 0.00 0.00 0.00 83 1020.0
20260905082605 60 192 14.8 15.6 0.00 0.00 0.00 83 1020.0
20260905082405 60 216 12.2 12.2 0.00 0.00 0.00 81 1020.0
20260905082205 60 210 14.8 15.6 0.00 0.00 0.00 82 1020.0
20260905082010 60 192 16.5 17.4 0.00 0.00 0.00 82 1020.0
20260905081806 60 204 14.8 15.6 0.00 0.00 0.00 82 1020.0
20260905081205 60 228 12.2 12.2 0.00 0.00 0.00 82 1020.0
20260905081012 60 228 13.0 13.0 0.00 0.00 0.00 82 1019.0
20260905080806 60 224 12.2 12.2 0.00 0.00 0.00 83 1019.0
20260905080606 60 228 17.4 19.1 0.00 0.00 0.00 82 1019.0
20260905080405 60 222 13.9 14.8 0.00 0.00 0.00 83 1019.0
20260905080205 60 252 7.8 7.8 0.00 0.00 0.00 82 1019.0
20260905075807 59 246 7.8 7.8 0.00 0.00 0.00 82 1019.0
20260905075606 59 210 12.2 12.2 0.00 0.00 0.00 83 1019.0
20260905075405 59 241 7.0 7.0 0.00 0.00 0.00 83 1019.0
20260905075221 59 216 7.8 7.8 0.00 0.00 0.00 83 1019.0
20260905075008 59 192 12.2 12.2 0.00 0.00 0.00 84 1019.0
20260905074805 58 224 7.8 7.8 0.00 0.00 0.00 85 1019.0
20260905074607 58 230 12.2 12.2 0.00 0.00 0.00 84 1019.0
20260905074405 58 234 7.8 7.8 0.00 0.00 0.00 84 1019.0
20260905074207 58 222 7.8 7.8 0.00 0.00 0.00 86 1019.0
20260905074010 58 198 7.0 7.0 0.00 0.00 0.00 85 1019.0
20260905073806 58 228 5.2 5.2 0.00 0.00 0.00 85 1019.0
20260905073606 58 306 7.0 7.0 0.00 0.00 0.00 85 1019.0
20260905073407 58 270 12.2 12.2 0.00 0.00 0.00 86 1019.0
20260905073205 58 252 7.8 7.8 0.00 0.00 0.00 85 1019.0
20260905073014 58 264 7.0 7.0 0.00 0.00 0.00 86 1019.0
20260905072807 58 282 7.8 7.8 0.00 0.00 0.00 86 1019.0
20260905072606 58 270 7.8 7.8 0.00 0.00 0.00 88 1019.0
20260905072407 58 287 7.0 7.0 0.00 0.00 0.00 88 1019.0
20260905072205 58 282 13.9 14.8 0.00 0.00 0.00 87 1019.0
20260905071805 57 276 14.8 15.6 0.00 0.00 0.00 87 1018.0
20260905071607 57 298 13.9 14.8 0.00 0.00 0.00 88 1018.0
20260905071412 57 298 7.8 7.8 0.00 0.00 0.00 87 1018.0
20260905071207 57 288 12.2 12.2 0.00 0.00 0.00 89 1018.0
20260905071011 57 286 13.9 14.8 0.00 0.00 0.00 88 1018.0
20260905070606 57 276 19.1 20.0 0.00 0.00 0.00 87 1018.0
20260905070407 57 275 15.6 16.5 0.00 0.00 0.00 89 1018.0
20260905070016 57 268 21.7 24.3 0.00 0.00 0.00 87 1018.0
20260905065822 57 273 7.8 7.8 0.00 0.00 0.00 88 1018.0
20260905065405 57 234 12.2 12.2 0.00 0.00 0.00 89 1018.0
20260905065206 57 222 15.6 16.5 0.00 0.00 0.00 88 1018.0
20260905065008 57 198 13.9 14.8 0.00 0.00 0.00 89 1018.0
20260905064807 57 204 13.0 13.0 0.00 0.00 0.00 89 1018.0
20260905064607 56 228 20.0 21.7 0.00 0.00 0.00 90 1018.0
20260905064405 56 204 7.0 7.0 0.00 0.00 0.00 90 1017.0
20260905064205 56 180 7.8 7.8 0.00 0.00 0.00 90 1017.0
20260905064009 56 180 18.2 19.1 0.00 0.00 0.00 91 1018.0
20260905063805 56 180 13.9 14.8 0.00 0.00 0.00 89 1018.0
20260905063606 56 168 12.2 12.2 0.00 0.00 0.00 90 1018.0
20260905063012 56 204 12.2 12.2 0.00 0.00 0.00 91 1018.0
20260905062807 56 234 19.1 21.7 0.00 0.00 0.00 92 1018.0
20260905062606 56 216 17.4 18.2 0.00 0.00 0.00 92 1018.0
20260905062406 56 249 12.2 12.2 0.00 0.00 0.00 91 1019.0
20260905062205 56 204 19.1 20.9 0.00 0.00 0.00 90 1019.0
20260905062012 56 234 13.0 13.0 0.00 0.00 0.00 90 1019.0
20260905061807 56 224 13.0 13.0 0.00 0.00 0.00 90 1019.0
20260905061205 57 228 7.0 7.0 0.00 0.00 0.00 90 1019.0
20260905060807 57 210 7.8 7.8 0.00 0.00 0.00 89 1019.0
20260905060607 57 228 7.0 7.0 0.00 0.00 0.00 88 1019.0
20260905060206 57 204 14.8 15.6 0.00 0.00 0.00 88 1019.0
20260905060020 57 252 15.6 16.5 0.00 0.00 0.00 88 1019.0
20260905055607 57 258 7.8 7.8 0.00 0.00 0.00 87 1019.0
20260905055205 57 216 12.2 12.2 0.00 0.00 0.00 87 1019.0
20260905055013 57 279 12.2 12.2 0.00 0.00 0.00 87 1019.0
20260905054807 57 264 7.0 7.0 0.00 0.00 0.00 88 1019.0
20260905054607 57 240 12.2 12.2 0.00 0.00 0.00 88 1019.0
20260905053807 57 306 15.6 16.5 0.00 0.00 0.00 86 1019.0
20260905053607 57 282 18.2 19.1 0.00 0.00 0.00 86 1019.0
20260905053404 57 288 16.5 17.4 0.00 0.00 0.00 85 1019.0
20260905053206 57 288 17.4 19.1 0.00 0.00 0.00 85 1019.0
20260905053013 57 270 18.2 19.1 0.00 0.00 0.00 84 1019.0
20260905052606 58 292 15.6 16.5 0.00 0.00 0.00 83 1019.0
20260905052405 58 288 13.9 14.8 0.00 0.00 0.00 83 1019.0
20260905052207 58 306 19.1 20.0 0.00 0.00 0.00 82 1019.0
20260905052011 58 288 14.8 15.6 0.00 0.00 0.00 83 1019.0
20260905051806 58 280 7.8 7.8 0.00 0.00 0.00 82 1019.0
20260905051605 58 303 14.8 15.6 0.00 0.00 0.00 82 1019.0
20260905051207 58 276 7.8 7.8 0.00 0.00 0.00 81 1018.0
20260905051008 58 263 7.8 7.8 0.00 0.00 0.00 81 1018.0
20260905050807 58 253 7.0 7.0 0.00 0.00 0.00 81 1018.0
20260905050606 58 258 5.2 5.2 0.00 0.00 0.00 82 1018.0
20260905050406 58 276 7.0 7.0 0.00 0.00 0.00 83 1018.0
20260905050205 58 279 7.0 7.0 0.00 0.00 0.00 83 1018.0
20260905050015 58 279 7.8 7.8 0.00 0.00 0.00 83 1018.0
20260905045806 58 288 13.9 14.8 0.00 0.00 0.00 83 1018.0
20260905045406 58 270 7.8 7.8 0.00 0.00 0.00 83 1018.0
20260905045011 58 281 13.0 14.8 0.00 0.00 0.00 81 1018.0
20260905044806 58 286 15.6 16.5 0.00 0.00 0.00 82 1018.0
20260905044607 58 270 18.2 19.1 0.00 0.00 0.00 83 1018.0
20260905044405 58 279 13.9 15.6 0.00 0.00 0.00 84 1018.0
20260905044011 58 282 13.0 14.8 0.00 0.00 0.00 83 1018.0
20260905043805 58 254 13.9 14.8 0.00 0.00 0.00 83 1018.0
20260905043607 58 299 12.2 12.2 0.00 0.00 0.00 83 1018.0
20260905043405 58 270 7.0 7.0 0.00 0.00 0.00 83 1018.0
20260905043207 58 216 7.8 7.8 0.00 0.00 0.00 83 1018.0
20260905043014 58 273 7.8 7.8 0.00 0.00 0.00 83 1018.0
20260905042805 58 247 14.8 15.6 0.00 0.00 0.00 83 1018.0
20260905042606 58 279 7.8 7.8 0.00 0.00 0.00 83 1018.0
20260905042205 58 276 18.2 19.1 0.00 0.00 0.00 81 1017.0
20260905042008 58 300 15.6 16.5 0.00 0.00 0.00 80 1017.0
20260905041807 58 287 13.9 14.8 0.00 0.00 0.00 79 1017.0
20260905041406 58 292 15.6 16.5 0.00 0.00 0.00 80 1017.0
20260905041205 58 306 17.4 19.1 0.00 0.00 0.00 79 1017.0
20260905041011 58 282 14.8 15.6 0.00 0.00 0.00 80 1017.0
20260905040405 58 285 17.4 19.1 0.00 0.00 0.00 78 1017.0
20260905040205 59 280 19.1 21.7 0.00 0.00 0.00 77 1017.0
20260905035805 59 285 17.4 19.1 0.00 0.00 0.00 76 1018.0
20260905035606 59 285 17.4 19.1 0.00 0.00 0.00 77 1018.0
20260905035404 59 288 26.1 26.9 0.00 0.00 0.00 77 1017.0
20260905035207 59 294 18.2 19.1 0.00 0.00 0.00 77 1017.0
20260905035008 59 288 24.3 24.3 0.00 0.00 0.00 79 1017.0
20260905034806 58 292 21.7 21.7 0.00 0.00 0.00 79 1017.0
20260905034605 58 282 24.3 24.3 0.00 0.00 0.00 79 1017.0
20260905034405 58 318 15.6 16.5 0.00 0.00 0.00 79 1017.0
20260905034207 58 304 17.4 19.1 0.00 0.00 0.00 82 1017.0
20260905034008 59 294 14.8 15.6 0.00 0.00 0.00 81 1017.0
20260905033807 59 279 22.6 22.6 0.00 0.00 0.00 77 1017.0
20260905033606 60 270 17.4 19.1 0.00 0.00 0.00 76 1017.0
20260905033405 62 294 28.7 33.0 0.00 0.00 0.00 68 1017.0
20260905033205 62 262 28.7 33.0 0.00 0.00 0.00 67 1017.0
20260905033012 62 285 26.9 27.8 0.00 0.00 0.00 67 1017.0
20260905032407 62 312 14.8 15.6 0.00 0.00 0.00 68 1016.0
20260905032205 62 306 22.6 22.6 0.00 0.00 0.00 68 1016.0
20260905031607 62 270 33.0 33.9 0.00 0.00 0.00 67 1016.0
20260905031404 62 294 14.8 15.6 0.00 0.00 0.00 68 1016.0
20260905031008 62 306 15.6 16.5 0.00 0.00 0.00 69 1016.0
20260905030804 62 300 18.2 19.1 0.00 0.00 0.00 70 1016.0
20260905030405 62 312 20.0 22.6 0.00 0.00 0.00 69 1016.0
20260905030018 63 276 26.9 26.9 0.00 0.00 0.00 67 1016.0
20260905025806 63 288 20.9 20.9 0.00 0.00 0.00 67 1016.0
20260905025648 63 282 29.5 35.6 0.00 0.00 0.00 66 1016.0
20260905025409 63 342 15.6 16.5 0.00 0.00 0.00 67 1017.0
20260905025205 63 288 24.3 26.9 0.00 0.00 0.00 66 1017.0
20260905025010 63 294 37.4 40.0 0.00 0.00 0.00 65 1016.0
20260905024823 63 312 26.1 26.9 0.00 0.00 0.00 65 1016.0
20260905024606 63 305 24.3 26.9 0.00 0.00 0.00 68 1016.0
20260905024407 63 282 16.5 17.4 0.00 0.00 0.00 68 1016.0
20260905024207 63 304 15.6 16.5 0.00 0.00 0.00 69 1016.0
20260905024008 63 4 16.5 17.4 0.00 0.00 0.00 69 1016.0
20260905023804 63 312 18.2 19.1 0.00 0.00 0.00 69 1016.0
20260905023605 63 294 15.6 16.5 0.00 0.00 0.00 69 1016.0
20260905023207 63 300 7.8 7.8 0.00 0.00 0.00 69 1016.0
20260905023014 63 337 13.0 14.8 0.00 0.00 0.00 70 1016.0
20260905022805 62 264 16.5 17.4 0.00 0.00 0.00 70 1016.0
20260905022605 62 312 19.1 20.9 0.00 0.00 0.00 70 1016.0
20260905022405 62 300 13.9 15.6 0.00 0.00 0.00 70 1016.0
20260905022205 62 324 18.2 19.1 0.00 0.00 0.00 70 1016.0
20260905021807 63 297 7.0 7.0 0.00 0.00 0.00 70 1016.0
20260905021607 63 282 14.8 15.6 0.00 0.00 0.00 69 1016.0
20260905021406 63 269 22.6 22.6 0.00 0.00 0.00 69 1016.0
20260905021205 63 330 16.5 17.4 0.00 0.00 0.00 69 1016.0
20260905021011 63 312 17.4 19.1 0.00 0.00 0.00 69 1015.0
20260905020807 63 12 19.1 21.7 0.00 0.00 0.00 69 1015.0
20260905020607 63 337 7.0 7.0 0.00 0.00 0.00 69 1015.0
20260905020407 63 48 15.6 16.5 0.00 0.00 0.00 69 1016.0
20260905020207 63 279 15.6 16.5 0.00 0.00 0.00 69 1016.0
20260905020019 63 282 26.9 26.9 0.00 0.00 0.00 68 1015.0
20260905015807 63 294 20.9 22.6 0.00 0.00 0.00 69 1015.0
20260905015606 63 304 13.9 14.8 0.00 0.00 0.00 68 1015.0
20260905015405 63 12 16.5 17.4 0.00 0.00 0.00 68 1016.0
20260905015011 64 296 17.4 19.1 0.00 0.00 0.00 68 1016.0
20260905014805 64 280 25.2 26.1 0.00 0.00 0.00 68 1016.0
20260905014605 64 306 16.5 17.4 0.00 0.00 0.00 68 1016.0
20260905014407 64 241 14.8 16.5 0.00 0.00 0.00 68 1016.0
20260905014207 64 312 19.1 21.7 0.00 0.00 0.00 67 1016.0
20260905013806 64 342 17.4 19.1 0.00 0.00 0.00 67 1015.0
20260905013606 64 276 19.1 20.0 0.00 0.00 0.00 67 1015.0
20260905013205 64 318 19.1 21.7 0.00 0.00 0.00 66 1015.0
20260905013016 64 17 17.4 19.1 0.00 0.00 0.00 67 1015.0
20260905012806 65 3 18.2 19.1 0.00 0.00 0.00 66 1015.0
20260905012605 65 254 19.1 21.7 0.00 0.00 0.00 66 1015.0
20260905012407 65 297 20.9 22.6 0.00 0.00 0.00 66 1016.0
20260905012009 65 24 22.6 26.9 0.00 0.00 0.00 66 1015.0
20260905011806 65 252 19.1 20.0 0.00 0.00 0.00 66 1015.0
20260905011605 65 0 19.1 20.9 0.00 0.00 0.00 66 1015.0
20260905011406 65 4 17.4 19.1 0.00 0.00 0.00 66 1015.0
20260905011208 66 348 19.1 21.7 0.00 0.00 0.00 66 1015.0
20260905011011 66 338 28.7 33.0 0.00 0.00 0.00 66 1015.0
20260905010829 66 249 22.6 22.6 0.00 0.00 0.00 67 1015.0
20260905010606 66 0 26.1 27.8 0.00 0.00 0.00 67 1015.0
20260905010407 66 258 17.4 19.1 0.00 0.00 0.00 67 1015.0
20260905010207 67 280 19.1 20.9 0.00 0.00 0.00 67 1015.0
20260905005805 67 18 28.7 33.0 0.00 0.00 0.00 66 1015.0
20260905005606 67 294 20.9 22.6 0.00 0.00 0.00 66 1015.0
20260905005404 68 330 29.5 38.2 0.00 0.00 0.00 64 1015.0
20260905005207 69 336 47.8 53.0 0.00 0.00 0.00 63 1015.0
20260905005008 70 332 22.6 26.9 0.00 0.00 0.00 62 1014.0
20260905004606 70 300 26.9 27.8 0.00 0.00 0.00 59 1014.0
20260905004407 70 281 60.0 64.3 0.00 0.00 0.00 58 1014.0
20260905004205 70 293 16.5 17.4 0.00 0.00 0.00 58 1014.0
20260905004010 70 284 19.1 20.9 0.00 0.00 0.00 58 1013.0
20260905003807 69 229 7.0 7.0 0.00 0.00 0.00 58 1013.0
20260905003405 69 192 6.1 6.1 0.00 0.00 0.00 58 1014.0
20260905003205 69 212 7.0 7.0 0.00 0.00 0.00 59 1014.0
20260905003020 70 212 6.1 6.1 0.00 0.00 0.00 58 1013.0
20260905002806 70 231 13.9 14.8 0.00 0.00 0.00 58 1013.0
20260905002606 70 212 5.2 5.2 0.00 0.00 0.00 58 1013.0
20260905002407 70 212 12.2 12.2 0.00 0.00 0.00 57 1013.0
20260905002207 70 218 7.0 7.0 0.00 0.00 0.00 57 1013.0
20260905002010 71 225 7.0 7.0 0.00 0.00 0.00 57 1013.0
20260905001805 71 178 7.8 7.8 0.00 0.00 0.00 56 1013.0
20260905001606 71 216 7.8 7.8 0.00 0.00 0.00 57 1013.0
20260905001406 71 212 7.8 7.8 0.00 0.00 0.00 56 1013.0
20260905001214 71 216 7.8 7.8 0.00 0.00 0.00 56 1013.0
20260905001014 71 225 13.0 13.0 0.00 0.00 0.00 56 1013.0
20260905000814 71 196 13.9 14.8 0.00 0.00 0.00 55 1013.0
20260905000606 71 204 17.4 19.1 0.00 0.00 0.00 55 1013.0
20260905000406 71 216 12.2 12.2 0.00 0.00 0.00 55 1013.0
20260905000207 71 202 7.0 7.0 0.00 0.00 0.00 56 1013.0
20260905000025 71 228 15.6 16.5 0.00 0.00 0.00 56 1013.0
20260904235807 71 246 13.0 14.8 0.00 0.00 0.00 56 1013.0
20260904235606 70 240 7.0 7.0 0.00 0.00 0.00 56 1013.0
20260904235405 70 212 12.2 12.2 0.00 0.00 0.00 57 1013.0
20260904235205 70 192 7.8 7.8 0.00 0.00 0.00 57 1013.0
20260904235010 70 219 12.2 12.2 0.00 0.00 0.00 58 1013.0
20260904234805 69 218 6.1 6.1 0.00 0.00 0.00 58 1013.0
20260904234607 69 198 12.2 12.2 0.00 0.00 0.00 59 1013.0
20260904234405 69 204 7.8 7.8 0.00 0.00 0.00 59 1013.0
20260904234206 69 204 7.0 7.0 0.00 0.00 0.00 59 1013.0
20260904234013 69 204 7.0 7.0 0.00 0.00 0.00 59 1013.0
20260904233807 69 162 6.1 6.1 0.00 0.00 0.00 59 1013.0
20260904233606 70 167 6.1 6.1 0.00 0.00 0.00 59 1013.0
20260904233406 70 162 7.0 7.0 0.00 0.00 0.00 59 1013.0
20260904233205 70 162 6.1 6.1 0.00 0.00 0.00 58 1013.0
20260904233016 70 162 7.8 7.8 0.00 0.00 0.00 58 1013.0
20260904232806 70 162 7.0 7.0 0.00 0.00 0.00 58 1013.0
20260904232606 70 180 7.8 7.8 0.00 0.00 0.00 57 1013.0
20260904232205 70 196 6.1 6.1 0.00 0.00 0.00 58 1013.0
20260904232010 70 196 7.0 7.0 0.00 0.00 0.00 58 1013.0
20260904231807 70 198 12.2 12.2 0.00 0.00 0.00 58 1013.0
20260904231405 70 186 7.0 7.0 0.00 0.00 0.00 59 1013.0
20260904231205 70 186 6.1 6.1 0.00 0.00 0.00 58 1013.0
20260904231009 70 186 6.1 6.1 0.00 0.00 0.00 59 1013.0
20260904230805 70 186 5.2 5.2 0.00 0.00 0.00 59 1013.0
20260904230406 71 186 7.0 7.0 0.00 0.00 0.00 57 1013.0
20260904230206 70 222 7.8 7.8 0.00 0.00 0.00 57 1013.0
20260904230019 70 214 7.0 7.0 0.00 0.00 0.00 57 1013.0
20260904225805 70 216 7.0 7.0 0.00 0.00 0.00 57 1013.0
20260904225407 70 212 12.2 12.2 0.00 0.00 0.00 58 1013.0
20260904225206 69 229 7.8 7.8 0.00 0.00 0.00 59 1013.0
20260904225007 69 223 13.0 14.8 0.00 0.00 0.00 59 1013.0
20260904224607 69 219 7.0 7.0 0.00 0.00 0.00 59 1013.0
20260904224405 69 228 7.0 7.0 0.00 0.00 0.00 59 1013.0
20260904224207 69 228 5.2 5.2 0.00 0.00 0.00 59 1013.0
20260904224010 69 228 5.2 5.2 0.00 0.00 0.00 60 1013.0
20260904223806 69 228 5.2 5.2 0.00 0.00 0.00 60 1013.0
20260904223606 69 228 5.2 5.2 0.00 0.00 0.00 61 1013.0
20260904223407 69 228 5.2 5.2 0.00 0.00 0.00 60 1013.0
20260904223207 69 228 4.3 4.3 0.00 0.00 0.00 60 1013.0
20260904223014 69 228 6.1 6.1 0.00 0.00 0.00 61 1013.0
20260904222805 69 228 5.2 5.2 0.00 0.00 0.00 61 1013.0
20260904222607 69 228 5.2 5.2 0.00 0.00 0.00 61 1013.0
20260904222205 69 228 5.2 5.2 0.00 0.00 0.00 61 1013.0
20260904222010 69 228 5.2 5.2 0.00 0.00 0.00 61 1013.0
20260904221606 69 228 5.2 5.2 0.00 0.00 0.00 61 1013.0
20260904221206 69 228 5.2 5.2 0.00 0.00 0.00 61 1013.0
20260904220804 69 228 6.1 6.1 0.00 0.00 0.00 60 1013.0
20260904220406 69 228 4.3 4.3 0.00 0.00 0.00 60 1013.0
20260904220205 69 228 5.2 5.2 0.00 0.00 0.00 60 1013.0
20260904220025 69 228 4.3 4.3 0.00 0.00 0.00 60 1013.0
20260904215805 69 228 5.2 5.2 0.00 0.00 0.00 60 1013.0
20260904215605 69 228 7.0 7.0 0.00 0.00 0.00 60 1013.0
20260904215405 69 228 6.1 6.1 0.00 0.00 0.00 59 1013.0
20260904215207 69 228 6.1 6.1 0.00 0.00 0.00 59 1013.0
20260904215009 70 228 5.2 5.2 0.00 0.00 0.00 60 1013.0
20260904214606 70 228 5.2 5.2 0.00 0.00 0.00 58 1013.0
20260904214405 70 228 5.2 5.2 0.00 0.00 0.00 58 1013.0
20260904214205 70 228 6.1 6.1 0.00 0.00 0.00 58 1013.0
20260904214010 70 228 5.2 5.2 0.00 0.00 0.00 59 1012.0
20260904213806 70 228 5.2 5.2 0.00 0.00 0.00 58 1012.0
20260904213607 70 228 6.1 6.1 0.00 0.00 0.00 58 1012.0
20260904213206 70 228 4.3 4.3 0.00 0.00 0.00 58 1012.0
20260904212807 70 228 6.1 6.1 0.00 0.00 0.00 57 1013.0
20260904212606 70 228 6.1 6.1 0.00 0.00 0.00 57 1013.0
20260904212205 70 228 7.0 7.0 0.00 0.00 0.00 57 1013.0
20260904212008 71 228 7.8 7.8 0.00 0.00 0.00 56 1013.0
20260904211806 71 224 6.1 6.1 0.00 0.00 0.00 56 1013.0
20260904211606 71 224 6.1 6.1 0.00 0.00 0.00 56 1013.0
20260904211405 71 225 7.8 7.8 0.00 0.00 0.00 55 1013.0
20260904211206 71 229 5.2 5.2 0.00 0.00 0.00 56 1013.0
20260904211008 71 192 6.1 6.1 0.00 0.00 0.00 56 1013.0
20260904210805 71 228 6.1 6.1 0.00 0.00 0.00 56 1013.0
20260904210605 70 216 7.8 7.8 0.00 0.00 0.00 56 1013.0
20260904210405 70 216 7.8 7.8 0.00 0.00 0.00 56 1013.0
20260904210205 70 216 7.0 7.0 0.00 0.00 0.00 57 1013.0
20260904210016 70 217 7.0 7.0 0.00 0.00 0.00 57 1012.0
20260904205805 70 225 7.0 7.0 0.00 0.00 0.00 57 1012.0
20260904205605 70 225 7.8 7.8 0.00 0.00 0.00 58 1012.0
20260904205407 70 223 7.0 7.0 0.00 0.00 0.00 57 1013.0
20260904205206 70 223 7.0 7.0 0.00 0.00 0.00 58 1013.0
20260904205008 70 223 7.8 7.8 0.00 0.00 0.00 58 1013.0
20260904204806 70 184 7.0 7.0 0.00 0.00 0.00 57 1013.0
20260904204606 70 180 7.0 7.0 0.00 0.00 0.00 57 1013.0
20260904204404 69 162 7.0 7.0 0.00 0.00 0.00 57 1013.0
20260904204205 69 192 7.0 7.0 0.00 0.00 0.00 57 1013.0
20260904204008 69 180 7.0 7.0 0.00 0.00 0.00 58 1013.0
20260904203804 69 180 7.0 7.0 0.00 0.00 0.00 58 1013.0
20260904203605 69 180 7.0 7.0 0.00 0.00 0.00 59 1013.0
20260904203405 69 180 6.1 6.1 0.00 0.00 0.00 58 1013.0
20260904203207 69 180 7.0 7.0 0.00 0.00 0.00 58 1013.0
20260904203012 69 180 7.0 7.0 0.00 0.00 0.00 58 1013.0
20260904202807 69 180 7.0 7.0 0.00 0.00 0.00 58 1013.0
20260904202606 69 180 5.2 5.2 0.00 0.00 0.00 58 1013.0
20260904202405 69 180 6.1 6.1 0.00 0.00 0.00 58 1013.0
20260904202008 69 180 7.0 7.0 0.00 0.00 0.00 58 1013.0
20260904201805 69 180 7.0 7.0 0.00 0.00 0.00 58 1013.0
20260904201607 69 180 6.1 6.1 0.00 0.00 0.00 58 1013.0
20260904201405 69 180 5.2 5.2 0.00 0.00 0.00 58 1013.0
20260904201011 69 180 5.2 5.2 0.00 0.00 0.00 58 1013.0
20260904200805 69 180 4.3 4.3 0.00 0.00 0.00 58 1013.0
20260904200606 70 180 4.3 4.3 0.00 0.00 0.00 57 1013.0
20260904200406 70 180 4.3 4.3 0.00 0.00 0.00 57 1013.0
20260904200205 70 180 4.3 4.3 0.00 0.00 0.00 57 1013.0
20260904200018 70 180 4.3 4.3 0.00 0.00 0.00 56 1013.0
20260904195806 70 180 4.3 4.3 0.00 0.00 0.00 56 1013.0
20260904195405 71 180 6.1 6.1 0.00 0.00 0.00 55 1013.0